Ball Ground, GA

3:23 AM EST on February 14, 2016 (GMT -0500)
Canton

Weather History for KCNI - August, 2013

Change the Weather History Date:

Monday, August 19, 2013

  Actual Average (KGVL) Record (KGVL)
Temperature  
Mean Temperature 74 °F 78 °F  
Max Temperature 80 °F 87 °F 98 °F (1988)
Min Temperature 68 °F 69 °F 60 °F (1976)
Cooling Degree Days 9 13  
Month to date cooling degree days 259  
Year to date cooling degree days 1181  
Since 1 June cooling degree days 1006  
Growing Degree Days 24 (Base 50)    
Moisture  
Dew Point 65 °F    
Average Humidity 80    
Maximum Humidity 94    
Minimum Humidity 58    
Precipitation  
Precipitation 0.00 in 0.14 in 1.31 in (1942)
Month to date precipitation 2.96  
Year to date precipitation 34.78  
Sea Level Pressure  
Sea Level Pressure 30.15 in    
Wind  
Wind Speed 5 mph (East)    
Max Wind Speed 9 mph    
Max Gust Speed -    
Visibility 9 miles    
Events Rain    
T = Trace of Precipitation, MM = Missing Value Source: NWS Daily Summary

Daily Weather History Graph

Daily Weather History Graph

Search for Another Location

Airport or City:

Trip Planner

Search our weather history database for the weather conditions in past years. The results will help you decide how hot, cold, wet, or windy it might be!

Date:

Astronomy

Aug. 19, 2013 Rise Set
Actual Time 7:01 AM EDT 8:19 PM EDT
Civil Twilight 6:35 AM EDT 8:46 PM EDT
Nautical Twilight 6:04 AM EDT 9:17 PM EDT
Astronomical Twilight 5:31 AM EDT 9:50 PM EDT
Moon 7:10 PM EDT (8/19) 5:21 AM EDT (8/19)
Length of Visible Light 14h 10m
Length of Day
13h 18m
Waxing Gibbous, 97% of the Moon is Illuminated
Aug 19
Waxing Gibbous
Aug 20
Full
Aug 28
Last Quarter
Sep 5
New
Sep 12
First Quarter

Hourly Weather History & Observations

Time (EDT) Temp. Heat Index Dew Point Humidity Pressure Visibility Wind Dir Wind Speed Gust Speed Precip Events Conditions
12:15 AM 69.8 °F - 66.2 °F 88% 30.19 in 10.0 mi NE 4.6 mph - N/A Rain Light Rain
12:35 AM 69.8 °F - 66.2 °F 88% 30.19 in 10.0 mi ENE 5.8 mph - N/A   Overcast
12:55 AM 68.0 °F - 66.2 °F 94% 30.19 in 5.0 mi Calm Calm - N/A Rain Rain
1:15 AM 68.0 °F - 64.4 °F 88% 30.19 in 4.0 mi ENE 9.2 mph - N/A Rain Rain
1:35 AM 68.0 °F - 64.4 °F 88% 30.17 in 7.0 mi NE 9.2 mph - N/A Rain Rain
1:55 AM 68.0 °F - 64.4 °F 88% 30.18 in 1.5 mi NE 6.9 mph - N/A Rain Heavy Rain
2:15 AM 68.0 °F - 64.4 °F 88% 30.17 in 4.0 mi ENE 6.9 mph - N/A Rain Rain
2:35 AM 68.0 °F - 64.4 °F 88% 30.16 in 5.0 mi ENE 6.9 mph - N/A Rain Light Rain
2:55 AM 68.0 °F - 64.4 °F 88% 30.15 in 7.0 mi ENE 4.6 mph - N/A Rain Rain
3:15 AM 68.0 °F - 64.4 °F 88% 30.15 in 7.0 mi ENE 5.8 mph - N/A Rain Light Rain
3:35 AM 68.0 °F - 64.4 °F 88% 30.16 in 4.0 mi Calm Calm - N/A   Mostly Cloudy
3:55 AM 68.0 °F - 64.4 °F 88% 30.15 in 10.0 mi ENE 4.6 mph - N/A   Overcast
4:15 AM 68.0 °F - 64.4 °F 88% 30.15 in 7.0 mi Calm Calm - N/A Rain Light Rain
4:35 AM 68.0 °F - 64.4 °F 88% 30.14 in 10.0 mi NE 3.5 mph - N/A   Overcast
4:55 AM 68.0 °F - 64.4 °F 88% 30.14 in 10.0 mi ENE 3.5 mph - N/A   Overcast
5:15 AM 68.0 °F - 64.4 °F 88% 30.14 in 10.0 mi ENE 5.8 mph - N/A   Overcast
5:35 AM 68.0 °F - 64.4 °F 88% 30.14 in 5.0 mi Calm Calm - N/A Rain Rain
5:55 AM 68.0 °F - 64.4 °F 88% 30.14 in 10.0 mi ENE 4.6 mph - N/A   Mostly Cloudy
6:15 AM 68.0 °F - 64.4 °F 88% 30.14 in 4.0 mi Calm Calm - N/A Rain Rain
6:35 AM 68.0 °F - 64.4 °F 88% 30.15 in 10.0 mi ENE 3.5 mph - N/A Rain Rain
6:55 AM 68.0 °F - 64.4 °F 88% 30.15 in 10.0 mi East 3.5 mph - N/A   Overcast
7:15 AM 68.0 °F - 64.4 °F 88% 30.15 in 7.0 mi ENE 4.6 mph - N/A   Overcast
7:35 AM 68.0 °F - 64.4 °F 88% 30.15 in 10.0 mi ENE 3.5 mph - N/A   Overcast
7:55 AM 68.0 °F - 64.4 °F 88% 30.15 in 10.0 mi ENE 3.5 mph - N/A   Overcast
8:15 AM 68.0 °F - 64.4 °F 88% 30.15 in 10.0 mi East 4.6 mph - N/A   Overcast
8:35 AM 68.0 °F - 64.4 °F 88% 30.16 in 10.0 mi East 3.5 mph - N/A   Overcast
8:55 AM 68.0 °F - 64.4 °F 88% 30.16 in 10.0 mi East 4.6 mph - N/A   Overcast
9:15 AM 68.0 °F - 64.4 °F 88% 30.17 in 10.0 mi ENE 4.6 mph - N/A   Overcast
9:35 AM 69.8 °F - 66.2 °F 88% 30.17 in 10.0 mi East 5.8 mph - N/A   Overcast
9:55 AM 69.8 °F - 66.2 °F 88% 30.17 in 10.0 mi ENE 4.6 mph - N/A   Overcast
10:15 AM 69.8 °F - 66.2 °F 88% 30.18 in 10.0 mi ENE 4.6 mph - N/A   Overcast
10:35 AM 69.8 °F - 66.2 °F 88% 30.18 in 10.0 mi ENE 3.5 mph - N/A   Overcast
10:55 AM 69.8 °F - 66.2 °F 88% 30.19 in 10.0 mi ENE 3.5 mph - N/A   Overcast
11:15 AM 71.6 °F - 66.2 °F 83% 30.19 in 10.0 mi East 4.6 mph - N/A   Overcast
11:35 AM 71.6 °F - 66.2 °F 83% 30.19 in 10.0 mi ENE 4.6 mph - N/A   Overcast
11:55 AM 71.6 °F - 64.4 °F 78% 30.18 in 10.0 mi ENE 4.6 mph - N/A   Overcast
12:15 PM 73.4 °F - 66.2 °F 78% 30.18 in 10.0 mi ENE 4.6 mph - N/A   Overcast
12:35 PM 73.4 °F - 66.2 °F 78% 30.18 in 10.0 mi East 4.6 mph - N/A   Overcast
12:55 PM 73.4 °F - 66.2 °F 78% 30.17 in 10.0 mi East 3.5 mph - N/A   Overcast
1:15 PM 73.4 °F - 64.4 °F 73% 30.18 in 10.0 mi East 4.6 mph - N/A   Overcast
1:35 PM 73.4 °F - 64.4 °F 73% 30.17 in 10.0 mi SE 3.5 mph - N/A   Overcast
1:55 PM 73.4 °F - 64.4 °F 73% 30.17 in 10.0 mi ESE 4.6 mph - N/A   Overcast
2:15 PM 75.2 °F - 64.4 °F 69% 30.16 in 10.0 mi SE 3.5 mph - N/A   Overcast
2:35 PM 75.2 °F - 64.4 °F 69% 30.16 in 10.0 mi SE 3.5 mph - N/A   Overcast
2:55 PM 77.0 °F - 64.4 °F 65% 30.15 in 10.0 mi ESE 4.6 mph - N/A   Mostly Cloudy
3:15 PM 77.0 °F - 64.4 °F 65% 30.14 in 10.0 mi ESE 5.8 mph - N/A   Mostly Cloudy
3:35 PM 80.6 °F 82.3 °F 64.4 °F 58% 30.13 in 10.0 mi SE 4.6 mph - N/A   Mostly Cloudy
3:55 PM 78.8 °F - 64.4 °F 61% 30.12 in 10.0 mi East 5.8 mph - N/A   Scattered Clouds
4:15 PM 78.8 °F - 64.4 °F 61% 30.12 in 10.0 mi ESE 3.5 mph - N/A   Mostly Cloudy
4:35 PM 80.6 °F 82.3 °F 64.4 °F 58% 30.11 in 10.0 mi ESE 4.6 mph - N/A   Mostly Cloudy
4:55 PM 80.6 °F 82.3 °F 64.4 °F 58% 30.11 in 10.0 mi SSE 6.9 mph - N/A   Scattered Clouds
5:15 PM 80.6 °F 82.3 °F 64.4 °F 58% 30.10 in 10.0 mi ESE 5.8 mph - N/A   Scattered Clouds
5:35 PM 80.6 °F 82.3 °F 64.4 °F 58% 30.10 in 10.0 mi ENE 4.6 mph - N/A   Scattered Clouds
5:55 PM 78.8 °F - 64.4 °F 61% 30.09 in 10.0 mi East 4.6 mph - N/A   Mostly Cloudy
6:15 PM 80.6 °F 82.3 °F 64.4 °F 58% 30.10 in 10.0 mi ENE 6.9 mph - N/A   Clear
6:35 PM 78.8 °F - 64.4 °F 61% 30.11 in 10.0 mi ESE 8.1 mph - N/A   Scattered Clouds
6:55 PM 77.0 °F - 64.4 °F 65% 30.11 in 10.0 mi East 5.8 mph - N/A   Scattered Clouds
7:15 PM 77.0 °F - 64.4 °F 65% 30.11 in 10.0 mi East 5.8 mph - N/A   Scattered Clouds
7:35 PM 75.2 °F - 66.2 °F 73% 30.11 in 10.0 mi ESE 6.9 mph - N/A   Mostly Cloudy
7:55 PM 75.2 °F - 66.2 °F 73% 30.11 in 10.0 mi East 5.8 mph - N/A   Mostly Cloudy
8:15 PM 73.4 °F - 66.2 °F 78% 30.12 in 10.0 mi East 4.6 mph - N/A   Scattered Clouds
8:35 PM 73.4 °F - 66.2 °F 78% 30.12 in 10.0 mi ENE 4.6 mph - N/A   Clear
8:55 PM 73.4 °F - 66.2 °F 78% 30.12 in 10.0 mi East 4.6 mph - N/A   Clear
9:15 PM 71.6 °F - 66.2 °F 83% 30.13 in 10.0 mi ENE 3.5 mph - N/A   Scattered Clouds
9:35 PM 71.6 °F - 68.0 °F 88% 30.14 in 10.0 mi East 4.6 mph - N/A   Scattered Clouds
9:55 PM 71.6 °F - 68.0 °F 88% 30.15 in 10.0 mi East 3.5 mph - N/A   Scattered Clouds
10:15 PM 71.6 °F - 68.0 °F 88% 30.15 in 10.0 mi East 3.5 mph - N/A   Mostly Cloudy
10:35 PM 71.6 °F - 68.0 °F 88% 30.15 in 10.0 mi East 3.5 mph - N/A   Overcast
10:55 PM 71.6 °F - 68.0 °F 88% 30.16 in 10.0 mi ESE 3.5 mph - N/A   Scattered Clouds
11:15 PM 71.6 °F - 68.0 °F 88% 30.16 in 10.0 mi ENE 3.5 mph - N/A   Scattered Clouds
11:35 PM 71.6 °F - 68.0 °F 88% 30.16 in 10.0 mi East 3.5 mph - N/A   Mostly Cloudy
11:55 PM 69.8 °F - 68.0 °F 94% 30.16 in 10.0 mi ENE 4.6 mph - N/A   Mostly Cloudy